sat.trackr.live / text

‹ back to catalog

COSMOS 2616

NORAD 68827 · 2026-090B

PAYLOAD ACTIVE UNKNOWN

§ Identity

Operator
Country
CIS
Launch date
2026-04-23
Launch site
PLMSC
Launch vehicle
Mass (kg)
RCS (m²)

External: N2YO · Heavens-Above · Gunter

§ Orbital elements

Epoch: 2026-09-20T01:19:28.916256Z

Period
90.75 min
Inclination
96.6360°
Eccentricity
0.0014594
Mean motion
15.86812247 rev/d
Perigee alt
301.5 km
Apogee alt
321.0 km
Semi-major
6,689.4 km
B*
1.4655e-4
RAAN
178.0029°
Arg perigee
46.5819°
Mean anomaly
313.6666°
Rev number
2,369

§ Raw data

COSMOS 26161 68827U 26090B   26263.05519579  .00036972  22985-5  14655-3 0  99902 68827  96.6360 178.0029 0014594  46.5819 313.6666 15.86812247 23691

JSON: /api/v1/satellites/68827 · /tle

For live sub-satellite position, see the globe view (requires WebGL).

§ Visibility from observer

Set your observer location to see the next 7 days of passes ≥ 10°. The values pass through the URL so the page stays shareable.

No JS? Fill the form by hand. The geolocation button needs JavaScript.